Miscellaneous Local Product
Issued by NWS Hastings, NE

Home | Current Version | Previous Version | Graphics & Text | Print | Product List | Glossary On
Versions: 1 2 3 4 5 6 7 8 9 10 11 12 13 14 15 16 17 18 19 20 21 22 23 24 25 26 27 28 29 30 31 32 33 34 35 36 37 38 39 40 41 42 43 44 45 46 47 48 49 50
000
AXUS43 KGID 311402
MISGRI

GID CWA HOURLY WEATHER ROUNDUP
NATIONAL WEATHER SERVICE HASTINGS NE
900 AM CDT SUN AUG 31 2014

NOTE: "FAIR" INDICATES FEW OR NO CLOUDS BELOW 12,000 FEET WITH NO
SIGNIFICANT WEATHER AND/OR OBSTRUCTIONS TO VISIBILITY.

...SOUTH CENTRAL NEBRASKA...

CITY           SKY/WX    TMP DP  RH WIND       PRES   REMARKS
GRAND ISLAND   CLOUDY    75  59  57 S14       29.76R
HASTINGS       CLOUDY    73  57  57 S10       29.77F
KEARNEY        PTSUNNY   73  59  60 S17G23    29.77F
ORD            CLOUDY    67  60  78 SW7       29.76R
YORK           CLOUDY    68 N/A N/A S7        29.77R
AURORA         CLOUDY    72  59  62 S12G18    29.77R
LEXINGTON      MOSUNNY   71  62  74 S8        29.78F
HOLDREGE       MOSUNNY   73  60  64 S12       29.79S
HEBRON         CLOUDY    74  57  55 S10       29.78F

...NEBRASKA PANHANDLE...

CITY           SKY/WX    TMP DP  RH WIND       PRES   REMARKS
CHADRON        CLOUDY    59  55  87 SE9       29.82F
ALLIANCE       LGT RAIN  58  56  93 W10       29.89R
SCOTTSBLUFF    LGT RAIN  59  59 100 SW8       29.93R
SIDNEY         CLOUDY    60  54  80 NW14      29.94R

...WESTERN AND NORTH CENTRAL NEBRASKA...

CITY           SKY/WX    TMP DP  RH WIND       PRES   REMARKS
VALENTINE      SUNNY     67  57  70 W7        29.78R
AINSWORTH      SUNNY     65  58  78 NW3       29.78R
ONEILL         PTSUNNY   67  63  86 S7        29.75R
BROKEN BOW     MOSUNNY   66  61  84 E5        29.78R
IMPERIAL       SUNNY     68  55  63 W6        29.80S
NORTH PLATTE   MOSUNNY   65  59  81 CALM      29.79R
MCCOOK         SUNNY     70  60  70 E7        29.77S

...EASTERN NEBRASKA...

CITY           SKY/WX    TMP DP  RH WIND       PRES   REMARKS
NORFOLK        PTSUNNY   73  61  65 S12       29.73R
SO SIOUX CITY  CLOUDY    70  65  84 SE10      29.72S
TEKAMAH        CLOUDY    72  66  81 SE10      29.75F
COLUMBUS       CLOUDY    66  63  88 SE6       29.77R
ALBION         CLOUDY    66  62  86 CALM      29.76R
OMAHA EPPLEY   PTSUNNY   75  66  73 S15       29.79F
OFFUTT AFB     PTSUNNY   74  72  93 SE12      29.79F
MILLARD        PTSUNNY   76  66  71 S13       29.79S
LINCOLN        CLOUDY    72  64  76 S8        29.79S
NEBRASKA CITY  PTSUNNY   73  68  84 S14       29.83S
BEATRICE       CLOUDY    70  65  85 S8        29.80F
FALLS CITY     PTSUNNY   75  68  78 S9        29.86R

...NORTHERN KANSAS...

CITY           SKY/WX    TMP DP  RH WIND       PRES   REMARKS
GOODLAND       MOSUNNY   65  59  81 S13       29.81F
HILL CITY      SUNNY     76  60  57 S9        29.77F
NORTON         SUNNY     73  57  56 E8        29.78S
PHILLIPSBURG   RAIN      72  63  73 E8        29.78F
SMITH CENTER   SUNNY     72  63  73 SE16      29.79S
BELOIT         SUNNY     70  64  83 S5        29.79R
HAYS           MOSUNNY   73  61  64 SE20      29.79F
RUSSELL        PTSUNNY   73  64  73 S12       29.80F
CONCORDIA      CLOUDY    70  66  87 SE12      29.79F
SALINA         CLOUDY    74  65  73 SE7       29.84F
TOPEKA         SUNNY     77  70  79 S7        29.89R



USA.gov is the U.S. government's official web portal to all federal, state and local government web resources and services.